FW8408 Weather Reports


time (UTC)temp
C
wind
direction
speed
KPH
gust
KPH
rain 1hr
cm
rain 24hr
cm
rain mn
cm
humidity
%
barometer
mb
20260505012030 11 155 9.7 19.3 0.00 0.00 0.00 74 1005.4
20260505011545 11 138 6.4 24.1 0.00 0.00 0.00 74 1005.4
20260505011030 11 188 6.4 24.1 0.00 0.00 0.00 74 1005.4
20260505010531 11 221 6.4 17.7 0.00 0.00 0.00 74 1005.3
20260505010041 11 225 6.4 16.1 0.00 0.00 0.00 74 1005.3
20260505005531 11 182 6.4 16.1 0.00 0.00 0.00 73 1005.3
20260505005031 11 242 6.4 12.9 0.00 0.00 0.00 73 1005.3
20260505004544 11 203 4.8 16.1 0.00 0.00 0.00 72 1005.2
20260505004031 11 204 6.4 16.1 0.00 0.00 0.00 71 1005.0
20260505003531 11 180 4.8 12.9 0.00 0.00 0.00 71 1005.0
20260505003040 12 192 3.2 12.9 0.00 0.00 0.00 70 1004.8
20260505002530 12 180 4.8 12.9 0.00 0.00 0.00 69 1004.7
20260505002031 12 178 4.8 11.3 0.00 0.00 0.00 68 1004.6
20260505001545 12 160 4.8 11.3 0.00 0.00 0.00 67 1004.6
20260505001030 13 159 4.8 11.3 0.00 0.00 0.00 65 1004.6
20260505000532 13 145 4.8 11.3 0.00 0.00 0.00 64 1004.5
20260505000103 13 187 4.8 11.3 0.00 0.00 0.00 62 1004.4
20260504235531 14 200 4.8 11.3 0.00 0.00 0.00 60 1004.5
20260504235031 15 187 3.2 11.3 0.00 0.00 0.00 58 1004.3
20260504234603 16 151 4.8 11.3 0.00 0.00 0.00 54 1004.3
20260504234031 17 139 4.8 11.3 0.00 0.00 0.00 50 1004.2
20260504233531 18 190 3.2 11.3 0.00 0.00 0.00 45 1004.2
20260504233040 20 206 3.2 9.7 0.00 0.00 0.00 40 1003.9
20260504232531 20 273 1.6 6.4 0.00 0.00 0.00 37 1003.9
20260504232032 20 265 1.6 8.0 0.00 0.00 0.00 38 1003.8
20260504231542 20 265 1.6 8.0 0.00 0.00 0.00 37 1003.7
20260504231031 20 304 1.6 14.5 0.00 0.00 0.00 37 1003.6
20260504230530 21 305 3.2 14.5 0.00 0.00 0.00 37 1003.6
20260504230039 21 229 3.2 11.3 0.00 0.00 0.00 37 1003.5
20260504225532 20 309 3.2 11.3 0.00 0.00 0.00 37 1003.5
20260504225031 20 276 3.2 11.3 0.00 0.00 0.00 36 1003.5
20260504224603 20 297 3.2 8.0 0.00 0.00 0.00 37 1003.5
20260504224030 20 306 1.6 8.0 0.00 0.00 0.00 37 1003.4
20260504223531 20 221 1.6 12.9 0.00 0.00 0.00 36 1003.3
20260504223048 20 275 4.8 14.5 0.00 0.00 0.00 36 1003.3
20260504222530 20 258 4.8 14.5 0.00 0.00 0.00 36 1003.2
20260504222030 20 309 3.2 16.1 0.00 0.00 0.00 37 1003.2
20260504221542 20 294 3.2 16.1 0.00 0.00 0.00 37 1003.2
20260504221031 20 300 6.4 19.3 0.00 0.00 0.00 37 1003.2
20260504220533 20 313 3.2 19.3 0.00 0.00 0.00 37 1003.1
20260504220040 21 331 6.4 19.3 0.00 0.00 0.00 36 1003.2
20260504215531 21 320 4.8 14.5 0.00 0.00 0.00 36 1003.2
20260504215030 21 304 3.2 16.1 0.00 0.00 0.00 36 1003.3
20260504214540 21 300 3.2 16.1 0.00 0.00 0.00 36 1003.4
20260504214030 21 280 8.0 16.1 0.00 0.00 0.00 36 1003.3
20260504213530 21 311 4.8 20.9 0.00 0.00 0.00 36 1003.2
20260504213121 21 292 3.2 20.9 0.00 0.00 0.00 36 1003.2
20260504212531 21 227 6.4 19.3 0.00 0.00 0.00 35 1003.1
20260504212029 21 308 6.4 20.9 0.00 0.00 0.00 35 1003.3
20260504211543 21 258 3.2 20.9 0.00 0.00 0.00 36 1003.3
20260504211029 21 316 8.0 20.9 0.00 0.00 0.00 35 1003.2
20260504210534 21 286 8.0 20.9 0.00 0.00 0.00 35 1003.1
20260504210041 21 328 12.9 20.9 0.00 0.00 0.00 33 1003.1
20260504205531 21 290 8.0 19.3 0.00 0.00 0.00 35 1003.2
20260504205030 21 302 8.0 22.5 0.00 0.00 0.00 36 1003.1
20260504204541 21 302 9.7 22.5 0.00 0.00 0.00 36 1003.1
20260504204030 21 257 6.4 17.7 0.00 0.00 0.00 36 1003.1
20260504203530 21 306 8.0 19.3 0.00 0.00 0.00 37 1003.1
20260504203040 21 280 8.0 19.3 0.00 0.00 0.00 36 1003.2
20260504202531 21 255 6.4 14.5 0.00 0.00 0.00 37 1003.2
20260504202030 21 310 1.6 11.3 0.00 0.00 0.00 38 1003.2
20260504201540 21 201 3.2 16.1 0.00 0.00 0.00 37 1003.2
20260504201031 21 309 1.6 16.1 0.00 0.00 0.00 38 1003.1
20260504200530 20 319 3.2 16.1 0.00 0.00 0.00 39 1003.2
20260504200049 20 252 3.2 11.3 0.00 0.00 0.00 39 1003.2
20260504195532 20 204 3.2 17.7 0.00 0.00 0.00 39 1003.2
20260504195031 20 257 8.0 17.7 0.00 0.00 0.00 37 1003.2
20260504194555 21 276 4.8 20.9 0.00 0.00 0.00 38 1003.0
20260504194031 20 309 9.7 20.9 0.00 0.00 0.00 39 1003.2
20260504193531 20 281 9.7 16.1 0.00 0.00 0.00 38 1003.1
20260504193051 20 322 8.0 16.1 0.00 0.00 0.00 38 1003.2
20260504192531 20 304 6.4 16.1 0.00 0.00 0.00 40 1003.3
20260504192032 20 274 4.8 17.7 0.00 0.00 0.00 40 1003.2
20260504191539 20 320 6.4 20.9 0.00 0.00 0.00 40 1003.4
20260504191031 19 335 11.3 20.9 0.00 0.00 0.00 41 1003.4
20260504190533 18 333 8.0 20.9 0.00 0.00 0.00 40 1003.5
20260504190041 18 306 6.4 20.9 0.00 0.00 0.00 39 1003.5
20260504185531 18 302 8.0 20.9 0.00 0.00 0.00 39 1003.5
20260504185030 18 323 4.8 19.3 0.00 0.00 0.00 38 1003.5
20260504184543 18 284 9.7 20.9 0.00 0.00 0.00 38 1003.5
20260504184031 18 288 8.0 22.5 0.00 0.00 0.00 38 1003.4
20260504183531 18 332 12.9 22.5 0.00 0.00 0.00 38 1003.5
20260504183040 18 302 4.8 22.5 0.00 0.00 0.00 38 1003.4
20260504182530 18 265 8.0 22.5 0.00 0.00 0.00 38 1003.3
20260504182031 18 300 12.9 20.9 0.00 0.00 0.00 37 1003.3
20260504181543 19 267 9.7 25.7 0.00 0.00 0.00 38 1003.3
20260504181031 19 286 12.9 25.7 0.00 0.00 0.00 37 1003.3
20260504180531 19 285 8.0 24.1 0.00 0.00 0.00 37 1003.3
20260504180039 19 302 11.3 25.7 0.00 0.00 0.00 36 1003.3
20260504175530 19 309 9.7 25.7 0.00 0.00 0.00 37 1003.3
20260504175033 19 322 9.7 24.1 0.00 0.00 0.00 37 1003.3
20260504174539 19 311 11.3 24.1 0.00 0.00 0.00 36 1003.2
20260504174031 20 321 9.7 17.7 0.00 0.00 0.00 35 1003.3
20260504173530 20 288 9.7 19.3 0.00 0.00 0.00 36 1003.2
20260504173048 20 211 12.9 30.6 0.00 0.00 0.00 36 1003.5
20260504172532 20 355 12.9 30.6 0.00 0.00 0.00 35 1003.3
20260504172031 20 205 8.0 25.7 0.00 0.00 0.00 35 1003.3
20260504171540 20 262 12.9 25.7 0.00 0.00 0.00 36 1003.1
20260504171032 20 286 12.9 24.1 0.00 0.00 0.00 36 1003.3
20260504170531 20 246 12.9 20.9 0.00 0.00 0.00 36 1003.4
20260504151030 16 298 11.3 17.7 0.00 0.00 0.00 47 1004.8
20260504150530 16 253 8.0 17.7 0.00 0.00 0.00 48 1004.6
20260504141030 15 205 3.2 24.1 0.00 0.00 0.00 52 1005.6
20260504140530 15 232 8.0 24.1 0.00 0.00 0.00 52 1005.6
20260504130531 12 310 4.8 14.5 0.00 0.00 0.00 62 1006.2
20260504110531 7 275 1.6 8.0 0.00 0.00 0.00 64 1006.7
20260504100530 6 252 1.6 4.8 0.00 0.00 0.00 64 1006.6
20260504090115 6 275 3.2 8.0 0.00 0.00 0.00 61 1006.5
20260504081542 5 292 3.2 6.4 0.00 0.00 0.00 63 1006.6
20260504081031 5 278 1.6 6.4 0.00 0.00 0.00 63 1006.6
20260504080528 5 279 1.6 4.8 0.00 0.00 0.00 63 1006.6
20260504050533 5 244 1.6 12.9 0.00 0.00 0.00 65 1006.5
20260504050107 5 254 3.2 12.9 0.00 0.00 0.00 65 1006.4
20260504045531 5 241 1.6 11.3 0.00 0.00 0.00 64 1006.5
20260504045031 5 248 1.6 11.3 0.00 0.00 0.00 64 1006.5
20260504044558 5 227 1.6 6.4 0.00 0.00 0.00 63 1006.4
20260504044031 5 259 1.6 6.4 0.00 0.00 0.00 63 1006.4
20260504043531 5 272 1.6 6.4 0.00 0.00 0.00 63 1006.3
20260504043044 5 276 3.2 6.4 0.00 0.00 0.00 63 1006.4
20260504042531 5 267 1.6 4.8 0.00 0.00 0.00 64 1006.3
20260504042030 5 250 1.6 4.8 0.00 0.00 0.00 64 1006.3
20260504041544 5 238 1.6 4.8 0.00 0.00 0.00 64 1006.4
20260504041030 5 253 1.6 4.8 0.00 0.00 0.00 64 1006.3
20260504040533 5 256 1.6 4.8 0.00 0.00 0.00 65 1006.3
20260504040046 5 266 1.6 4.8 0.00 0.00 0.00 65 1006.3
20260504035531 5 278 1.6 4.8 0.00 0.00 0.00 66 1006.2
20260504035029 5 280 1.6 4.8 0.00 0.00 0.00 66 1006.2
20260504034551 5 0 0.0 3.2 0.00 0.00 0.00 66 1006.1
20260504034030 5 0 0.0 4.8 0.00 0.00 0.00 65 1006.1
20260504033530 5 0 0.0 4.8 0.00 0.00 0.00 65 1006.1
20260504033054 5 0 0.0 0.0 0.00 0.00 0.00 64 1006.1
20260504032530 5 0 0.0 0.0 0.00 0.00 0.00 64 1006.1
20260504032032 5 0 0.0 0.0 0.00 0.00 0.00 64 1006.1
20260504031549 5 0 0.0 0.0 0.00 0.00 0.00 63 1006.0
20260504031030 6 0 0.0 1.6 0.00 0.00 0.00 63 1006.1
20260504030530 6 0 0.0 1.6 0.00 0.00 0.00 62 1006.1
20260504030050 6 0 0.0 3.2 0.00 0.00 0.00 62 1006.1
20260504025531 6 0 0.0 3.2 0.00 0.00 0.00 61 1006.0
20260504025033 6 290 1.6 3.2 0.00 0.00 0.00 61 1006.1
20260504024551 6 290 0.0 3.2 0.00 0.00 0.00 61 1006.0
20260504024030 6 290 1.6 3.2 0.00 0.00 0.00 61 1006.0
20260504023531 6 290 1.6 3.2 0.00 0.00 0.00 61 1006.0
20260504023047 6 290 1.6 3.2 0.00 0.00 0.00 61 1006.0
20260504022531 6 290 1.6 3.2 0.00 0.00 0.00 61 1006.0
20260504022030 6 290 0.0 3.2 0.00 0.00 0.00 61 1006.1
20260504021544 6 0 0.0 4.8 0.00 0.00 0.00 60 1006.1
20260504021031 6 0 0.0 4.8 0.00 0.00 0.00 60 1006.1
20260504020532 6 290 1.6 3.2 0.00 0.00 0.00 59 1006.2
20260504020051 6 290 0.0 3.2 0.00 0.00 0.00 59 1006.2
20260504015531 6 290 0.0 3.2 0.00 0.03 0.00 59 1006.2
20260504015031 7 290 0.0 4.8 0.00 0.03 0.00 59 1006.1
20260504014547 7 288 1.6 4.8 0.00 0.03 0.00 58 1006.0
20260504014030 7 265 1.6 6.4 0.00 0.03 0.00 58 1006.1
20260504013530 7 277 1.6 9.7 0.00 0.03 0.00 58 1006.1
20260504013051 7 288 4.8 9.7 0.00 0.03 0.00 58 1005.9
20260504012531 7 292 3.2 9.7 0.00 0.03 0.00 57 1005.8